Location: Bullards Ferry
(33.9807°N, 82.8096°W)
Time: 04:59:57
(UTC+00:00)

Hubble Space Telescope - Visible Passes

Search period start: 27 November 2021 00:00
Search period end: 07 December 2021 00:00
Orbit: 535 x 538 km, 28.5° (Epoch: 26 November)

Date Brightness Start Highest point End Pass type
(mag) Time Alt. Az. Time Alt. Az. Time Alt. Az.
27 Nov 3.6 09:31:46 15° ESE 09:31:46 15° ESE 09:32:48 10° ESE visible
27 Nov 1.9 11:07:05 14° WSW 11:10:14 38° S 11:14:03 10° ESE visible
28 Nov 3.9 09:21:25 12° ESE 09:21:25 12° ESE 09:21:45 10° ESE visible
28 Nov 1.8 10:56:43 20° WSW 10:59:02 38° S 11:02:52 10° ESE visible
29 Nov 1.8 10:46:19 27° SW 10:47:51 38° S 10:51:41 10° ESE visible
30 Nov 1.7 10:35:52 33° SSW 10:36:40 36° S 10:40:28 10° ESE visible
01 Dec 1.8 10:25:24 34° S 10:25:28 34° S 10:29:13 10° ESE visible
02 Dec 2.2 10:14:56 30° S 10:14:56 30° S 10:17:57 10° SE visible
02 Dec 3.1 11:52:31 10° WSW 11:54:55 15° SSW 11:57:19 10° SSE visible
03 Dec 2.7 10:04:28 23° SSE 10:04:28 23° SSE 10:06:38 10° SE visible
03 Dec 3.2 11:41:57 10° SW 11:43:40 12° SSW 11:45:22 10° S visible
04 Dec 3.2 09:54:01 17° SSE 09:54:01 17° SSE 09:55:16 10° SE visible
05 Dec 3.7 09:43:35 11° SSE 09:43:35 11° SSE 09:43:51 10° SE visible
